Location: Rancho Del Sol Observatory
(38.7214°N, 120.6350°W)
Time: 05:01:58
(UTC-08:00)

Cosmos 2221 Rocket - Visible Passes

Search period start: 11 February 2016 00:00
Search period end: 21 February 2016 00:00
Orbit: 621 x 649 km, 82.5° (Epoch: 10 February)

Date Brightness Start Highest point End Pass type
(mag) Time Alt. Az. Time Alt. Az. Time Alt. Az.
11 Feb 5.9 04:28:31 10° SE 04:32:02 24° E 04:35:33 10° NE visible
11 Feb 4.5 06:06:24 10° SW 06:10:05 26° WNW 06:13:49 10° NNW visible
12 Feb 4.4 04:49:54 10° SSE 04:54:09 51° E 04:58:27 10° NNE visible
12 Feb 5.3 06:30:42 10° W 06:32:41 13° WNW 06:34:40 10° NW visible
13 Feb 3.4 05:12:02 10° SSW 05:16:24 71° W 05:20:50 10° N visible
14 Feb 6.1 03:58:56 15° ESE 04:00:52 19° E 04:04:01 10° NE visible
14 Feb 4.2 05:36:36 20° SW 05:38:48 32° WNW 05:42:48 10° NNW visible
15 Feb 4.8 04:23:10 40° E 04:23:10 40° E 04:27:07 10° NNE visible
15 Feb 5.1 06:00:44 15° W 06:01:21 16° WNW 06:04:03 10° NW visible
16 Feb 4.3 04:46:33 44° N 04:46:33 44° N 04:49:38 10° N visible
17 Feb 6.7 03:32:04 11° NE 03:32:04 11° NE 03:32:22 10° NE visible
17 Feb 4.9 05:09:36 24° NNW 05:09:36 24° NNW 05:11:43 10° N visible
18 Feb 6.2 03:54:55 15° NNE 03:54:55 15° NNE 03:55:45 10° NNE visible
18 Feb 5.6 05:32:26 13° NW 05:32:26 13° NW 05:33:14 10° NNW visible
19 Feb 6.0 04:17:36 15° NNE 04:17:36 15° NNE 04:18:23 10° N visible
20 Feb 6.0 04:40:12 12° N 04:40:12 12° N 04:40:36 10° N visible
